Overview Statistics Trail Chart Weather Telemetry Raw packets
 

This is the latest recevied weather packets stored in our database for station/object WX0ABE-13. If no packets are shown the sender has not sent any weather packets the latest 10 day(s).

<< 79 80 81 82 83 84 85 >>
Time Temp. Humidity Pressure Rain* Wind** Luminosity Snow
1787776587 31.11° C 42% 1023.3 hPa 0 mm - 592 W/m² -
1787776286 30.56° C 41% 1023.5 hPa 0 mm - 596 W/m² -
1787775985 30° C 42% 1023.3 hPa 0 mm - 602 W/m² -
1787775680 30° C 43% 1023.7 hPa 0 mm - 609 W/m² -
1787775378 30° C 45% 1023.8 hPa 0 mm - 617 W/m² -
1787775073 30° C 48% 1023.6 hPa 0 mm - 623 W/m² -
1787774772 30° C 43% 1023.8 hPa 0 mm - 629 W/m² -
1787774467 30° C 47% 1023.8 hPa 0 mm - 634 W/m² -
1787774166 30° C 44% 1023.7 hPa 0 mm - 639 W/m² -
1787773865 30° C 44% 1023.7 hPa 0 mm - 646 W/m² -
1787773564 30° C 42% 1023.9 hPa 0 mm - 650 W/m² -
1787773261 28.89° C 45% 1024 hPa 0 mm - 653 W/m² -
1787772955 30° C 43% 1024.1 hPa 0 mm - 656 W/m² -
1787772651 29.44° C 45% 1024.1 hPa 0 mm - 661 W/m² -
1787772349 29.44° C 45% 1024 hPa 0 mm - 665 W/m² -
1787772048 29.44° C 43% 1023.9 hPa 0 mm - 668 W/m² -
1787771749 29.44° C 45% 1024.2 hPa 0 mm - 669 W/m² -
1787771447 28.89° C 46% 1024.1 hPa 0 mm - 672 W/m² -
1787771146 28.89° C 44% 1024.2 hPa 0 mm - 673 W/m² -
1787770843 28.89° C 47% 1024.1 hPa 0 mm - 675 W/m² -
1787770541 28.89° C 45% 1024.4 hPa 0 mm - 674 W/m² -
1787770241 28.33° C 48% 1024.2 hPa 0 mm - 675 W/m² -
1787769939 28.89° C 44% 1024.4 hPa 0 mm - 674 W/m² -
1787769635 28.89° C 49% 1024.6 hPa 0 mm - 674 W/m² -
1787769332 28.89° C 45% 1024.6 hPa 0 mm - 670 W/m² -

* Rain latest hour (hover to see other rain measurements)
** Current wind speed in m/s (hover to see current wind gust speed)